owner,sensor,date,latitude,longitude,vertical_datum,sea_water_temperature,qcFlag 
WAVCIS,ioos:station:WAVCIS:CSI16:2,2009-04-01T00:00:00Z,29.4012,-89.0355,10.0,20.212,11111222 
WAVCIS,ioos:station:WAVCIS:CSI16:2,2009-04-01T00:15:00Z,29.4012,-89.0355,10.0,20.208,11111222 
WAVCIS,ioos:station:WAVCIS:CSI16:2,2009-04-01T00:30:00Z,29.4012,-89.0355,10.0,20.281,11111222 
WAVCIS,ioos:station:WAVCIS:CSI16:2,2009-04-01T00:45:00Z,29.4012,-89.0355,10.0,20.164,11111222 
WAVCIS,ioos:station:WAVCIS:CSI16:2,2009-04-01T01:00:00Z,29.4012,-89.0355,10.0,20.123,11111222 
WAVCIS,ioos:station:WAVCIS:CSI16:2,2009-04-01T01:15:00Z,29.4012,-89.0355,10.0,20.1,11111222 
WAVCIS,ioos:station:WAVCIS:CSI16:2,2009-04-01T01:30:00Z,29.4012,-89.0355,10.0,20.1,11111222 
WAVCIS,ioos:station:WAVCIS:CSI16:2,2009-04-01T01:45:00Z,29.4012,-89.0355,10.0,19.965,11111222 
WAVCIS,ioos:station:WAVCIS:CSI16:2,2009-04-01T02:00:00Z,29.4012,-89.0355,10.0,20.007,11111222 
WAVCIS,ioos:station:WAVCIS:CSI16:2,2009-04-01T02:15:00Z,29.4012,-89.0355,10.0,20.323,11111222 
WAVCIS,ioos:station:WAVCIS:CSI16:2,2009-04-01T02:30:00Z,29.4012,-89.0355,10.0,20.32,11111222 
WAVCIS,ioos:station:WAVCIS:CSI16:2,2009-04-01T02:45:00Z,29.4012,-89.0355,10.0,20.035,11111222 
WAVCIS,ioos:station:WAVCIS:CSI16:2,2009-04-01T03:00:00Z,29.4012,-89.0355,10.0,20.085,11111222 
WAVCIS,ioos:station:WAVCIS:CSI16:2,2009-04-01T03:15:00Z,29.4012,-89.0355,10.0,20.479,11111222 
WAVCIS,ioos:station:WAVCIS:CSI16:2,2009-04-01T03:30:00Z,29.4012,-89.0355,10.0,20.397,11111222 
WAVCIS,ioos:station:WAVCIS:CSI16:2,2009-04-01T03:45:00Z,29.4012,-89.0355,10.0,20.292,11111222 
WAVCIS,ioos:station:WAVCIS:CSI16:2,2009-04-01T04:00:00Z,29.4012,-89.0355,10.0,20.265,11111222 
WAVCIS,ioos:station:WAVCIS:CSI16:2,2009-04-01T04:15:00Z,29.4012,-89.0355,10.0,20.32,11111222 
WAVCIS,ioos:station:WAVCIS:CSI16:2,2009-04-01T04:30:00Z,29.4012,-89.0355,10.0,20.218,11111222 
WAVCIS,ioos:station:WAVCIS:CSI16:2,2009-04-01T04:45:00Z,29.4012,-89.0355,10.0,20.315,11111222 
WAVCIS,ioos:station:WAVCIS:CSI16:2,2009-04-01T05:00:00Z,29.4012,-89.0355,10.0,20.307,11111222 
WAVCIS,ioos:station:WAVCIS:CSI16:2,2009-04-01T05:15:00Z,29.4012,-89.0355,10.0,20.329,11111222 
WAVCIS,ioos:station:WAVCIS:CSI16:2,2009-04-01T05:30:00Z,29.4012,-89.0355,10.0,20.363,11111222 
WAVCIS,ioos:station:WAVCIS:CSI16:2,2009-04-01T05:45:00Z,29.4012,-89.0355,10.0,20.378,11111222 
WAVCIS,ioos:station:WAVCIS:CSI16:2,2009-04-01T06:00:00Z,29.4012,-89.0355,10.0,20.374,11111222 
WAVCIS,ioos:station:WAVCIS:CSI16:2,2009-04-01T06:15:00Z,29.4012,-89.0355,10.0,20.316,11111222 
WAVCIS,ioos:station:WAVCIS:CSI16:2,2009-04-01T06:30:00Z,29.4012,-89.0355,10.0,20.285,11111222 
WAVCIS,ioos:station:WAVCIS:CSI16:2,2009-04-01T06:45:00Z,29.4012,-89.0355,10.0,20.311,11111222 
WAVCIS,ioos:station:WAVCIS:CSI16:2,2009-04-01T07:00:00Z,29.4012,-89.0355,10.0,20.174,11111222 
WAVCIS,ioos:station:WAVCIS:CSI16:2,2009-04-01T07:15:00Z,29.4012,-89.0355,10.0,20.156,11111222 
WAVCIS,ioos:station:WAVCIS:CSI16:2,2009-04-01T07:30:00Z,29.4012,-89.0355,10.0,20.147,11111222 
WAVCIS,ioos:station:WAVCIS:CSI16:2,2009-04-01T07:45:00Z,29.4012,-89.0355,10.0,20.131,11111222 
WAVCIS,ioos:station:WAVCIS:CSI16:2,2009-04-01T08:00:00Z,29.4012,-89.0355,10.0,20.168,11111222 
WAVCIS,ioos:station:WAVCIS:CSI16:2,2009-04-01T08:15:00Z,29.4012,-89.0355,10.0,20.187,11111222 
WAVCIS,ioos:station:WAVCIS:CSI16:2,2009-04-01T08:30:00Z,29.4012,-89.0355,10.0,20.19,11111222 
WAVCIS,ioos:station:WAVCIS:CSI16:2,2009-04-01T08:45:00Z,29.4012,-89.0355,10.0,20.219,11111222 
WAVCIS,ioos:station:WAVCIS:CSI16:2,2009-04-01T09:00:00Z,29.4012,-89.0355,10.0,20.205,11111222 
WAVCIS,ioos:station:WAVCIS:CSI16:2,2009-04-01T09:15:00Z,29.4012,-89.0355,10.0,20.217,11111222 
WAVCIS,ioos:station:WAVCIS:CSI16:2,2009-04-01T09:30:00Z,29.4012,-89.0355,10.0,20.23,11111222 
WAVCIS,ioos:station:WAVCIS:CSI16:2,2009-04-01T09:45:00Z,29.4012,-89.0355,10.0,20.232,11111222 
WAVCIS,ioos:station:WAVCIS:CSI16:2,2009-04-01T10:00:00Z,29.4012,-89.0355,10.0,20.242,11111222 
WAVCIS,ioos:station:WAVCIS:CSI16:2,2009-04-01T10:15:00Z,29.4012,-89.0355,10.0,20.252,11111222 
WAVCIS,ioos:station:WAVCIS:CSI16:2,2009-04-01T10:30:00Z,29.4012,-89.0355,10.0,20.269,11111222 
WAVCIS,ioos:station:WAVCIS:CSI16:2,2009-04-01T10:45:00Z,29.4012,-89.0355,10.0,20.278,11111222 
WAVCIS,ioos:station:WAVCIS:CSI16:2,2009-04-01T11:00:00Z,29.4012,-89.0355,10.0,20.272,11111222 
WAVCIS,ioos:station:WAVCIS:CSI16:2,2009-04-01T11:15:00Z,29.4012,-89.0355,10.0,20.266,11111222 
WAVCIS,ioos:station:WAVCIS:CSI16:2,2009-04-01T11:30:00Z,29.4012,-89.0355,10.0,20.288,11111222 
WAVCIS,ioos:station:WAVCIS:CSI16:2,2009-04-01T11:45:00Z,29.4012,-89.0355,10.0,20.284,11111222 
WAVCIS,ioos:station:WAVCIS:CSI16:2,2009-04-01T12:00:00Z,29.4012,-89.0355,10.0,20.276,11111222 
WAVCIS,ioos:station:WAVCIS:CSI16:2,2009-04-01T12:15:00Z,29.4012,-89.0355,10.0,20.319,11111222 
WAVCIS,ioos:station:WAVCIS:CSI16:2,2009-04-01T12:30:00Z,29.4012,-89.0355,10.0,20.339,11111222 
WAVCIS,ioos:station:WAVCIS:CSI16:2,2009-04-01T12:45:00Z,29.4012,-89.0355,10.0,20.305,11111222 
WAVCIS,ioos:station:WAVCIS:CSI16:2,2009-04-01T13:00:00Z,29.4012,-89.0355,10.0,20.327,11111222 
WAVCIS,ioos:station:WAVCIS:CSI16:2,2009-04-01T13:15:00Z,29.4012,-89.0355,10.0,20.295,11111222 
WAVCIS,ioos:station:WAVCIS:CSI16:2,2009-04-01T13:30:00Z,29.4012,-89.0355,10.0,20.309,11111222 
WAVCIS,ioos:station:WAVCIS:CSI16:2,2009-04-01T13:45:00Z,29.4012,-89.0355,10.0,20.316,11111222 
WAVCIS,ioos:station:WAVCIS:CSI16:2,2009-04-01T14:00:00Z,29.4012,-89.0355,10.0,20.292,11111222 
WAVCIS,ioos:station:WAVCIS:CSI16:2,2009-04-01T14:15:00Z,29.4012,-89.0355,10.0,20.282,11111222 
WAVCIS,ioos:station:WAVCIS:CSI16:2,2009-04-01T14:30:00Z,29.4012,-89.0355,10.0,20.278,11111222 
WAVCIS,ioos:station:WAVCIS:CSI16:2,2009-04-01T14:45:00Z,29.4012,-89.0355,10.0,20.273,11111222 
WAVCIS,ioos:station:WAVCIS:CSI16:2,2009-04-01T15:00:00Z,29.4012,-89.0355,10.0,20.282,11111222 
WAVCIS,ioos:station:WAVCIS:CSI16:2,2009-04-01T15:15:00Z,29.4012,-89.0355,10.0,20.277,11111222 
WAVCIS,ioos:station:WAVCIS:CSI16:2,2009-04-01T15:30:00Z,29.4012,-89.0355,10.0,20.283,11111222 
WAVCIS,ioos:station:WAVCIS:CSI16:2,2009-04-01T15:45:00Z,29.4012,-89.0355,10.0,20.27,11111222 
WAVCIS,ioos:station:WAVCIS:CSI16:2,2009-04-01T16:00:00Z,29.4012,-89.0355,10.0,20.274,11111222 
WAVCIS,ioos:station:WAVCIS:CSI16:2,2009-04-01T16:15:00Z,29.4012,-89.0355,10.0,20.291,11111222 
WAVCIS,ioos:station:WAVCIS:CSI16:2,2009-04-01T16:30:00Z,29.4012,-89.0355,10.0,20.264,11111222 
WAVCIS,ioos:station:WAVCIS:CSI16:2,2009-04-01T16:45:00Z,29.4012,-89.0355,10.0,20.311,11111222 
WAVCIS,ioos:station:WAVCIS:CSI16:2,2009-04-01T17:00:00Z,29.4012,-89.0355,10.0,20.264,11111222 
WAVCIS,ioos:station:WAVCIS:CSI16:2,2009-04-01T17:15:00Z,29.4012,-89.0355,10.0,20.32,11111222 
WAVCIS,ioos:station:WAVCIS:CSI16:2,2009-04-01T17:30:00Z,29.4012,-89.0355,10.0,20.451,11111222 
WAVCIS,ioos:station:WAVCIS:CSI16:2,2009-04-01T17:45:00Z,29.4012,-89.0355,10.0,20.432,11111222 
WAVCIS,ioos:station:WAVCIS:CSI16:2,2009-04-01T18:00:00Z,29.4012,-89.0355,10.0,20.427,11111222 
WAVCIS,ioos:station:WAVCIS:CSI16:2,2009-04-01T18:15:00Z,29.4012,-89.0355,10.0,20.511,11111222 
WAVCIS,ioos:station:WAVCIS:CSI16:2,2009-04-01T18:30:00Z,29.4012,-89.0355,10.0,20.552,11111222 
WAVCIS,ioos:station:WAVCIS:CSI16:2,2009-04-01T18:45:00Z,29.4012,-89.0355,10.0,20.566,11111222 
WAVCIS,ioos:station:WAVCIS:CSI16:2,2009-04-01T19:00:00Z,29.4012,-89.0355,10.0,20.555,11111222 
WAVCIS,ioos:station:WAVCIS:CSI16:2,2009-04-01T19:15:00Z,29.4012,-89.0355,10.0,20.547,11111222 
WAVCIS,ioos:station:WAVCIS:CSI16:2,2009-04-01T19:30:00Z,29.4012,-89.0355,10.0,20.52,11111222 
WAVCIS,ioos:station:WAVCIS:CSI16:2,2009-04-01T19:45:00Z,29.4012,-89.0355,10.0,20.549,11111222 
WAVCIS,ioos:station:WAVCIS:CSI16:2,2009-04-01T20:00:00Z,29.4012,-89.0355,10.0,20.566,11111222 
WAVCIS,ioos:station:WAVCIS:CSI16:2,2009-04-01T20:15:00Z,29.4012,-89.0355,10.0,20.585,11111222 
WAVCIS,ioos:station:WAVCIS:CSI16:2,2009-04-01T20:30:00Z,29.4012,-89.0355,10.0,20.581,11111222 
WAVCIS,ioos:station:WAVCIS:CSI16:2,2009-04-01T20:45:00Z,29.4012,-89.0355,10.0,20.572,11111222 
WAVCIS,ioos:station:WAVCIS:CSI16:2,2009-04-01T21:00:00Z,29.4012,-89.0355,10.0,20.552,11111222 
WAVCIS,ioos:station:WAVCIS:CSI16:2,2009-04-01T21:15:00Z,29.4012,-89.0355,10.0,20.556,11111222 
WAVCIS,ioos:station:WAVCIS:CSI16:2,2009-04-01T21:30:00Z,29.4012,-89.0355,10.0,20.547,11111222 
WAVCIS,ioos:station:WAVCIS:CSI16:2,2009-04-01T21:45:00Z,29.4012,-89.0355,10.0,20.526,11111222 
WAVCIS,ioos:station:WAVCIS:CSI16:2,2009-04-01T22:00:00Z,29.4012,-89.0355,10.0,20.536,11111222 
WAVCIS,ioos:station:WAVCIS:CSI16:2,2009-04-01T22:15:00Z,29.4012,-89.0355,10.0,20.511,11111222 
WAVCIS,ioos:station:WAVCIS:CSI16:2,2009-04-01T22:30:00Z,29.4012,-89.0355,10.0,20.478,11111222 
WAVCIS,ioos:station:WAVCIS:CSI16:2,2009-04-01T22:45:00Z,29.4012,-89.0355,10.0,20.465,11111222 
WAVCIS,ioos:station:WAVCIS:CSI16:2,2009-04-01T23:00:00Z,29.4012,-89.0355,10.0,20.458,11111222 
WAVCIS,ioos:station:WAVCIS:CSI16:2,2009-04-01T23:15:00Z,29.4012,-89.0355,10.0,20.443,11111222 
WAVCIS,ioos:station:WAVCIS:CSI16:2,2009-04-01T23:30:00Z,29.4012,-89.0355,10.0,20.431,11111222 
WAVCIS,ioos:station:WAVCIS:CSI16:2,2009-04-01T23:45:00Z,29.4012,-89.0355,10.0,20.421,11111222 
WAVCIS,ioos:station:WAVCIS:CSI16:2,2009-04-02T00:00:00Z,29.4012,-89.0355,10.0,20.415,11111222 
WAVCIS,ioos:station:WAVCIS:CSI16:2,2009-04-02T00:15:00Z,29.4012,-89.0355,10.0,20.406,11111222 
WAVCIS,ioos:station:WAVCIS:CSI16:2,2009-04-02T00:30:00Z,29.4012,-89.0355,10.0,20.386,11111222 
WAVCIS,ioos:station:WAVCIS:CSI16:2,2009-04-02T00:45:00Z,29.4012,-89.0355,10.0,20.365,11111222 
WAVCIS,ioos:station:WAVCIS:CSI16:2,2009-04-02T01:00:00Z,29.4012,-89.0355,10.0,20.345,11111222 
WAVCIS,ioos:station:WAVCIS:CSI16:2,2009-04-02T01:15:00Z,29.4012,-89.0355,10.0,20.322,11111222 
WAVCIS,ioos:station:WAVCIS:CSI16:2,2009-04-02T01:30:00Z,29.4012,-89.0355,10.0,20.3,11111222 
WAVCIS,ioos:station:WAVCIS:CSI16:2,2009-04-02T01:45:00Z,29.4012,-89.0355,10.0,20.272,11111222 
WAVCIS,ioos:station:WAVCIS:CSI16:2,2009-04-02T02:00:00Z,29.4012,-89.0355,10.0,20.262,11111222 
WAVCIS,ioos:station:WAVCIS:CSI16:2,2009-04-02T02:15:00Z,29.4012,-89.0355,10.0,20.236,11111222 
WAVCIS,ioos:station:WAVCIS:CSI16:2,2009-04-02T02:30:00Z,29.4012,-89.0355,10.0,20.208,11111222 
WAVCIS,ioos:station:WAVCIS:CSI16:2,2009-04-02T02:45:00Z,29.4012,-89.0355,10.0,20.183,11111222 
WAVCIS,ioos:station:WAVCIS:CSI16:2,2009-04-02T03:00:00Z,29.4012,-89.0355,10.0,20.148,11111222 
WAVCIS,ioos:station:WAVCIS:CSI16:2,2009-04-02T03:15:00Z,29.4012,-89.0355,10.0,20.124,11111222 
WAVCIS,ioos:station:WAVCIS:CSI16:2,2009-04-02T03:30:00Z,29.4012,-89.0355,10.0,20.096,11111222 
WAVCIS,ioos:station:WAVCIS:CSI16:2,2009-04-02T03:45:00Z,29.4012,-89.0355,10.0,20.095,11111222 
WAVCIS,ioos:station:WAVCIS:CSI16:2,2009-04-02T04:00:00Z,29.4012,-89.0355,10.0,20.083,11111222 
WAVCIS,ioos:station:WAVCIS:CSI16:2,2009-04-02T04:15:00Z,29.4012,-89.0355,10.0,20.084,11111222 
WAVCIS,ioos:station:WAVCIS:CSI16:2,2009-04-02T04:30:00Z,29.4012,-89.0355,10.0,20.081,11111222 
WAVCIS,ioos:station:WAVCIS:CSI16:2,2009-04-02T04:45:00Z,29.4012,-89.0355,10.0,20.078,11111222 
WAVCIS,ioos:station:WAVCIS:CSI16:2,2009-04-02T05:00:00Z,29.4012,-89.0355,10.0,20.069,11111222 
WAVCIS,ioos:station:WAVCIS:CSI16:2,2009-04-02T05:15:00Z,29.4012,-89.0355,10.0,20.071,11111222 
WAVCIS,ioos:station:WAVCIS:CSI16:2,2009-04-02T05:30:00Z,29.4012,-89.0355,10.0,20.069,11111222 
WAVCIS,ioos:station:WAVCIS:CSI16:2,2009-04-02T05:45:00Z,29.4012,-89.0355,10.0,20.073,11111222 
WAVCIS,ioos:station:WAVCIS:CSI16:2,2009-04-02T06:00:00Z,29.4012,-89.0355,10.0,20.08,11111222 
WAVCIS,ioos:station:WAVCIS:CSI16:2,2009-04-02T06:15:00Z,29.4012,-89.0355,10.0,20.083,11111222 
WAVCIS,ioos:station:WAVCIS:CSI16:2,2009-04-02T06:30:00Z,29.4012,-89.0355,10.0,20.08,11111222 
WAVCIS,ioos:station:WAVCIS:CSI16:2,2009-04-02T06:45:00Z,29.4012,-89.0355,10.0,20.076,11111222 
WAVCIS,ioos:station:WAVCIS:CSI16:2,2009-04-02T07:00:00Z,29.4012,-89.0355,10.0,20.081,11111222 
WAVCIS,ioos:station:WAVCIS:CSI16:2,2009-04-02T07:15:00Z,29.4012,-89.0355,10.0,20.081,11111222 
WAVCIS,ioos:station:WAVCIS:CSI16:2,2009-04-02T07:30:00Z,29.4012,-89.0355,10.0,20.083,11111222 
WAVCIS,ioos:station:WAVCIS:CSI16:2,2009-04-02T07:45:00Z,29.4012,-89.0355,10.0,20.08,11111222 
WAVCIS,ioos:station:WAVCIS:CSI16:2,2009-04-02T08:00:00Z,29.4012,-89.0355,10.0,20.085,11111222 
WAVCIS,ioos:station:WAVCIS:CSI16:2,2009-04-02T08:15:00Z,29.4012,-89.0355,10.0,20.09,11111222 
WAVCIS,ioos:station:WAVCIS:CSI16:2,2009-04-02T08:30:00Z,29.4012,-89.0355,10.0,20.096,11111222 
WAVCIS,ioos:station:WAVCIS:CSI16:2,2009-04-02T08:45:00Z,29.4012,-89.0355,10.0,20.096,11111222 
WAVCIS,ioos:station:WAVCIS:CSI16:2,2009-04-02T09:00:00Z,29.4012,-89.0355,10.0,20.098,11111222 
WAVCIS,ioos:station:WAVCIS:CSI16:2,2009-04-02T09:15:00Z,29.4012,-89.0355,10.0,20.101,11111222 
WAVCIS,ioos:station:WAVCIS:CSI16:2,2009-04-02T09:30:00Z,29.4012,-89.0355,10.0,20.108,11111222 
WAVCIS,ioos:station:WAVCIS:CSI16:2,2009-04-02T09:45:00Z,29.4012,-89.0355,10.0,20.113,11111222 
WAVCIS,ioos:station:WAVCIS:CSI16:2,2009-04-02T10:00:00Z,29.4012,-89.0355,10.0,20.113,11111222 
WAVCIS,ioos:station:WAVCIS:CSI16:2,2009-04-02T10:15:00Z,29.4012,-89.0355,10.0,20.115,11111222 
WAVCIS,ioos:station:WAVCIS:CSI16:2,2009-04-02T10:30:00Z,29.4012,-89.0355,10.0,20.118,11111222 
WAVCIS,ioos:station:WAVCIS:CSI16:2,2009-04-02T10:45:00Z,29.4012,-89.0355,10.0,20.125,11111222 
WAVCIS,ioos:station:WAVCIS:CSI16:2,2009-04-02T11:00:00Z,29.4012,-89.0355,10.0,20.131,11111222 
WAVCIS,ioos:station:WAVCIS:CSI16:2,2009-04-02T11:15:00Z,29.4012,-89.0355,10.0,20.133,11111222 
WAVCIS,ioos:station:WAVCIS:CSI16:2,2009-04-02T11:30:00Z,29.4012,-89.0355,10.0,20.14,11111222 
WAVCIS,ioos:station:WAVCIS:CSI16:2,2009-04-02T11:45:00Z,29.4012,-89.0355,10.0,20.15,11111222 
WAVCIS,ioos:station:WAVCIS:CSI16:2,2009-04-02T12:00:00Z,29.4012,-89.0355,10.0,20.142,11111222 
WAVCIS,ioos:station:WAVCIS:CSI16:2,2009-04-02T12:15:00Z,29.4012,-89.0355,10.0,20.156,11111222 
WAVCIS,ioos:station:WAVCIS:CSI16:2,2009-04-02T12:30:00Z,29.4012,-89.0355,10.0,20.157,11111222 
WAVCIS,ioos:station:WAVCIS:CSI16:2,2009-04-02T12:45:00Z,29.4012,-89.0355,10.0,20.17,11111222 
WAVCIS,ioos:station:WAVCIS:CSI16:2,2009-04-02T13:00:00Z,29.4012,-89.0355,10.0,20.169,11111222 
WAVCIS,ioos:station:WAVCIS:CSI16:2,2009-04-02T13:15:00Z,29.4012,-89.0355,10.0,20.169,11111222 
WAVCIS,ioos:station:WAVCIS:CSI16:2,2009-04-02T13:30:00Z,29.4012,-89.0355,10.0,20.166,11111222 
WAVCIS,ioos:station:WAVCIS:CSI16:2,2009-04-02T13:45:00Z,29.4012,-89.0355,10.0,20.164,11111222 
WAVCIS,ioos:station:WAVCIS:CSI16:2,2009-04-02T14:00:00Z,29.4012,-89.0355,10.0,20.174,11111222 
WAVCIS,ioos:station:WAVCIS:CSI16:2,2009-04-02T14:15:00Z,29.4012,-89.0355,10.0,20.185,11111222 
WAVCIS,ioos:station:WAVCIS:CSI16:2,2009-04-02T14:30:00Z,29.4012,-89.0355,10.0,20.187,11111222 
WAVCIS,ioos:station:WAVCIS:CSI16:2,2009-04-02T14:45:00Z,29.4012,-89.0355,10.0,20.201,11111222 
WAVCIS,ioos:station:WAVCIS:CSI16:2,2009-04-02T15:00:00Z,29.4012,-89.0355,10.0,20.192,11111222 
WAVCIS,ioos:station:WAVCIS:CSI16:2,2009-04-02T15:15:00Z,29.4012,-89.0355,10.0,20.178,11111222 
WAVCIS,ioos:station:WAVCIS:CSI16:2,2009-04-02T15:30:00Z,29.4012,-89.0355,10.0,20.177,11111222 
WAVCIS,ioos:station:WAVCIS:CSI16:2,2009-04-02T15:45:00Z,29.4012,-89.0355,10.0,20.184,11111222 
WAVCIS,ioos:station:WAVCIS:CSI16:2,2009-04-02T16:00:00Z,29.4012,-89.0355,10.0,20.179,11111222 
WAVCIS,ioos:station:WAVCIS:CSI16:2,2009-04-02T16:15:00Z,29.4012,-89.0355,10.0,20.171,11111222 
WAVCIS,ioos:station:WAVCIS:CSI16:2,2009-04-02T16:30:00Z,29.4012,-89.0355,10.0,20.185,11111222 
WAVCIS,ioos:station:WAVCIS:CSI16:2,2009-04-02T16:45:00Z,29.4012,-89.0355,10.0,20.216,11111222 
WAVCIS,ioos:station:WAVCIS:CSI16:2,2009-04-02T17:00:00Z,29.4012,-89.0355,10.0,20.237,11111222 
WAVCIS,ioos:station:WAVCIS:CSI16:2,2009-04-02T17:15:00Z,29.4012,-89.0355,10.0,20.276,11111222 
WAVCIS,ioos:station:WAVCIS:CSI16:2,2009-04-02T17:30:00Z,29.4012,-89.0355,10.0,20.292,11111222 
WAVCIS,ioos:station:WAVCIS:CSI16:2,2009-04-02T17:45:00Z,29.4012,-89.0355,10.0,20.306,11111222 
WAVCIS,ioos:station:WAVCIS:CSI16:2,2009-04-02T18:00:00Z,29.4012,-89.0355,10.0,20.32,11111222 
WAVCIS,ioos:station:WAVCIS:CSI16:2,2009-04-02T18:15:00Z,29.4012,-89.0355,10.0,20.335,11111222 
WAVCIS,ioos:station:WAVCIS:CSI16:2,2009-04-02T18:30:00Z,29.4012,-89.0355,10.0,20.34,11111222 
WAVCIS,ioos:station:WAVCIS:CSI16:2,2009-04-02T18:45:00Z,29.4012,-89.0355,10.0,20.352,11111222 
WAVCIS,ioos:station:WAVCIS:CSI16:2,2009-04-02T19:00:00Z,29.4012,-89.0355,10.0,20.359,11111222 
WAVCIS,ioos:station:WAVCIS:CSI16:2,2009-04-02T19:15:00Z,29.4012,-89.0355,10.0,20.354,11111222 
WAVCIS,ioos:station:WAVCIS:CSI16:2,2009-04-02T19:30:00Z,29.4012,-89.0355,10.0,20.381,11111222 
WAVCIS,ioos:station:WAVCIS:CSI16:2,2009-04-02T19:45:00Z,29.4012,-89.0355,10.0,20.361,11111222 
WAVCIS,ioos:station:WAVCIS:CSI16:2,2009-04-02T20:00:00Z,29.4012,-89.0355,10.0,20.384,11111222 
WAVCIS,ioos:station:WAVCIS:CSI16:2,2009-04-02T20:15:00Z,29.4012,-89.0355,10.0,20.36,11111222 
WAVCIS,ioos:station:WAVCIS:CSI16:2,2009-04-02T20:30:00Z,29.4012,-89.0355,10.0,20.386,11111222 
WAVCIS,ioos:station:WAVCIS:CSI16:2,2009-04-02T20:45:00Z,29.4012,-89.0355,10.0,20.44,11111222 
WAVCIS,ioos:station:WAVCIS:CSI16:2,2009-04-02T21:00:00Z,29.4012,-89.0355,10.0,20.4,11111222 
WAVCIS,ioos:station:WAVCIS:CSI16:2,2009-04-02T21:15:00Z,29.4012,-89.0355,10.0,20.391,11111222 
WAVCIS,ioos:station:WAVCIS:CSI16:2,2009-04-02T21:30:00Z,29.4012,-89.0355,10.0,20.442,11111222 
WAVCIS,ioos:station:WAVCIS:CSI16:2,2009-04-02T21:45:00Z,29.4012,-89.0355,10.0,20.388,11111222 
WAVCIS,ioos:station:WAVCIS:CSI16:2,2009-04-02T22:00:00Z,29.4012,-89.0355,10.0,20.388,11111222 
WAVCIS,ioos:station:WAVCIS:CSI16:2,2009-04-02T22:15:00Z,29.4012,-89.0355,10.0,20.399,11111222 
WAVCIS,ioos:station:WAVCIS:CSI16:2,2009-04-02T22:30:00Z,29.4012,-89.0355,10.0,20.401,11111222 
WAVCIS,ioos:station:WAVCIS:CSI16:2,2009-04-02T22:45:00Z,29.4012,-89.0355,10.0,20.398,11111222 
WAVCIS,ioos:station:WAVCIS:CSI16:2,2009-04-02T23:00:00Z,29.4012,-89.0355,10.0,20.421,11111222 
WAVCIS,ioos:station:WAVCIS:CSI16:2,2009-04-02T23:15:00Z,29.4012,-89.0355,10.0,20.423,11111222 
WAVCIS,ioos:station:WAVCIS:CSI16:2,2009-04-02T23:30:00Z,29.4012,-89.0355,10.0,20.421,11111222 
WAVCIS,ioos:station:WAVCIS:CSI16:2,2009-04-02T23:45:00Z,29.4012,-89.0355,10.0,20.417,11111222 
WAVCIS,ioos:station:WAVCIS:CSI16:2,2009-04-03T00:00:00Z,29.4012,-89.0355,10.0,20.425,11111222 
WAVCIS,ioos:station:WAVCIS:CSI16:2,2009-04-03T00:15:00Z,29.4012,-89.0355,10.0,20.431,11111222 
WAVCIS,ioos:station:WAVCIS:CSI16:2,2009-04-03T00:30:00Z,29.4012,-89.0355,10.0,20.443,11111222 
WAVCIS,ioos:station:WAVCIS:CSI16:2,2009-04-03T00:45:00Z,29.4012,-89.0355,10.0,20.421,11111222 
WAVCIS,ioos:station:WAVCIS:CSI16:2,2009-04-03T01:00:00Z,29.4012,-89.0355,10.0,20.435,11111222 
WAVCIS,ioos:station:WAVCIS:CSI16:2,2009-04-03T01:15:00Z,29.4012,-89.0355,10.0,20.487,11111222 
WAVCIS,ioos:station:WAVCIS:CSI16:2,2009-04-03T01:30:00Z,29.4012,-89.0355,10.0,20.5,11111222 
WAVCIS,ioos:station:WAVCIS:CSI16:2,2009-04-03T01:45:00Z,29.4012,-89.0355,10.0,20.521,11111222 
WAVCIS,ioos:station:WAVCIS:CSI16:2,2009-04-03T02:00:00Z,29.4012,-89.0355,10.0,20.543,11111222 
WAVCIS,ioos:station:WAVCIS:CSI16:2,2009-04-03T02:15:00Z,29.4012,-89.0355,10.0,20.557,11111222 
WAVCIS,ioos:station:WAVCIS:CSI16:2,2009-04-03T02:30:00Z,29.4012,-89.0355,10.0,20.574,11111222 
WAVCIS,ioos:station:WAVCIS:CSI16:2,2009-04-03T02:45:00Z,29.4012,-89.0355,10.0,20.582,11111222 
WAVCIS,ioos:station:WAVCIS:CSI16:2,2009-04-03T03:00:00Z,29.4012,-89.0355,10.0,20.59,11111222 
WAVCIS,ioos:station:WAVCIS:CSI16:2,2009-04-03T03:15:00Z,29.4012,-89.0355,10.0,20.599,11111222 
WAVCIS,ioos:station:WAVCIS:CSI16:2,2009-04-03T03:30:00Z,29.4012,-89.0355,10.0,20.604,11111222 
WAVCIS,ioos:station:WAVCIS:CSI16:2,2009-04-03T03:45:00Z,29.4012,-89.0355,10.0,20.605,11111222 
WAVCIS,ioos:station:WAVCIS:CSI16:2,2009-04-03T04:00:00Z,29.4012,-89.0355,10.0,20.608,11111222 
WAVCIS,ioos:station:WAVCIS:CSI16:2,2009-04-03T04:15:00Z,29.4012,-89.0355,10.0,20.612,11111222 
WAVCIS,ioos:station:WAVCIS:CSI16:2,2009-04-03T04:30:00Z,29.4012,-89.0355,10.0,20.62,11111222 
WAVCIS,ioos:station:WAVCIS:CSI16:2,2009-04-03T04:45:00Z,29.4012,-89.0355,10.0,20.621,11111222 
WAVCIS,ioos:station:WAVCIS:CSI16:2,2009-04-03T05:00:00Z,29.4012,-89.0355,10.0,20.621,11111222 
WAVCIS,ioos:station:WAVCIS:CSI16:2,2009-04-03T05:15:00Z,29.4012,-89.0355,10.0,20.626,11111222 
WAVCIS,ioos:station:WAVCIS:CSI16:2,2009-04-03T05:30:00Z,29.4012,-89.0355,10.0,20.628,11111222 
WAVCIS,ioos:station:WAVCIS:CSI16:2,2009-04-03T05:45:00Z,29.4012,-89.0355,10.0,20.638,11111222 
WAVCIS,ioos:station:WAVCIS:CSI16:2,2009-04-03T06:00:00Z,29.4012,-89.0355,10.0,20.636,11111222 
WAVCIS,ioos:station:WAVCIS:CSI16:2,2009-04-03T06:15:00Z,29.4012,-89.0355,10.0,20.636,11111222 
WAVCIS,ioos:station:WAVCIS:CSI16:2,2009-04-03T06:30:00Z,29.4012,-89.0355,10.0,20.634,11111222 
WAVCIS,ioos:station:WAVCIS:CSI16:2,2009-04-03T06:45:00Z,29.4012,-89.0355,10.0,20.637,11111222 
WAVCIS,ioos:station:WAVCIS:CSI16:2,2009-04-03T07:00:00Z,29.4012,-89.0355,10.0,20.637,11111222 
WAVCIS,ioos:station:WAVCIS:CSI16:2,2009-04-03T07:15:00Z,29.4012,-89.0355,10.0,20.638,11111222 
WAVCIS,ioos:station:WAVCIS:CSI16:2,2009-04-03T07:30:00Z,29.4012,-89.0355,10.0,20.644,11111222 
WAVCIS,ioos:station:WAVCIS:CSI16:2,2009-04-03T07:45:00Z,29.4012,-89.0355,10.0,20.648,11111222 
WAVCIS,ioos:station:WAVCIS:CSI16:2,2009-04-03T08:00:00Z,29.4012,-89.0355,10.0,20.656,11111222 
WAVCIS,ioos:station:WAVCIS:CSI16:2,2009-04-03T08:15:00Z,29.4012,-89.0355,10.0,20.668,11111222 
WAVCIS,ioos:station:WAVCIS:CSI16:2,2009-04-03T08:30:00Z,29.4012,-89.0355,10.0,20.677,11111222 
WAVCIS,ioos:station:WAVCIS:CSI16:2,2009-04-03T08:45:00Z,29.4012,-89.0355,10.0,20.686,11111222 
WAVCIS,ioos:station:WAVCIS:CSI16:2,2009-04-03T09:00:00Z,29.4012,-89.0355,10.0,20.696,11111222 
WAVCIS,ioos:station:WAVCIS:CSI16:2,2009-04-03T09:15:00Z,29.4012,-89.0355,10.0,20.702,11111222 
WAVCIS,ioos:station:WAVCIS:CSI16:2,2009-04-03T09:30:00Z,29.4012,-89.0355,10.0,20.705,11111222 
WAVCIS,ioos:station:WAVCIS:CSI16:2,2009-04-03T09:45:00Z,29.4012,-89.0355,10.0,20.708,11111222 
WAVCIS,ioos:station:WAVCIS:CSI16:2,2009-04-03T10:00:00Z,29.4012,-89.0355,10.0,20.727,11111222 
WAVCIS,ioos:station:WAVCIS:CSI16:2,2009-04-03T10:15:00Z,29.4012,-89.0355,10.0,20.733,11111222 
WAVCIS,ioos:station:WAVCIS:CSI16:2,2009-04-03T10:30:00Z,29.4012,-89.0355,10.0,20.742,11111222 
WAVCIS,ioos:station:WAVCIS:CSI16:2,2009-04-03T10:45:00Z,29.4012,-89.0355,10.0,20.746,11111222 
WAVCIS,ioos:station:WAVCIS:CSI16:2,2009-04-03T11:00:00Z,29.4012,-89.0355,10.0,20.751,11111222 
WAVCIS,ioos:station:WAVCIS:CSI16:2,2009-04-03T11:15:00Z,29.4012,-89.0355,10.0,20.763,11111222 
WAVCIS,ioos:station:WAVCIS:CSI16:2,2009-04-03T11:30:00Z,29.4012,-89.0355,10.0,20.767,11111222 
WAVCIS,ioos:station:WAVCIS:CSI16:2,2009-04-03T11:45:00Z,29.4012,-89.0355,10.0,20.774,11111222 
WAVCIS,ioos:station:WAVCIS:CSI16:2,2009-04-03T12:00:00Z,29.4012,-89.0355,10.0,20.757,11111222 
WAVCIS,ioos:station:WAVCIS:CSI16:2,2009-04-03T12:15:00Z,29.4012,-89.0355,10.0,20.755,11111222 
WAVCIS,ioos:station:WAVCIS:CSI16:2,2009-04-03T12:30:00Z,29.4012,-89.0355,10.0,20.763,11111222 
WAVCIS,ioos:station:WAVCIS:CSI16:2,2009-04-03T12:45:00Z,29.4012,-89.0355,10.0,20.763,11111222 
WAVCIS,ioos:station:WAVCIS:CSI16:2,2009-04-03T13:00:00Z,29.4012,-89.0355,10.0,20.759,11111222 
WAVCIS,ioos:station:WAVCIS:CSI16:2,2009-04-03T13:15:00Z,29.4012,-89.0355,10.0,20.758,11111222 
WAVCIS,ioos:station:WAVCIS:CSI16:2,2009-04-03T13:30:00Z,29.4012,-89.0355,10.0,20.767,11111222 
WAVCIS,ioos:station:WAVCIS:CSI16:2,2009-04-03T13:45:00Z,29.4012,-89.0355,10.0,20.772,11111222 
WAVCIS,ioos:station:WAVCIS:CSI16:2,2009-04-03T14:00:00Z,29.4012,-89.0355,10.0,20.771,11111222 
WAVCIS,ioos:station:WAVCIS:CSI16:2,2009-04-03T14:15:00Z,29.4012,-89.0355,10.0,20.776,11111222 
WAVCIS,ioos:station:WAVCIS:CSI16:2,2009-04-03T14:30:00Z,29.4012,-89.0355,10.0,20.782,11111222 
WAVCIS,ioos:station:WAVCIS:CSI16:2,2009-04-03T14:45:00Z,29.4012,-89.0355,10.0,20.79,11111222 